Theta_e
315 319 343 341 339 340 341 339 343 345 348 347 344 342 340 343 344 343 344 344 344 342 342 342 340 337 332 331 334 334 338 342 339 341 342 342 341 342 341 342 343 342 339 343
313 315 317 323 329 336 336 341 341 344 348 346 347 345 341 342 343 344 344 343 344 344 343 343 341 339 338 333 338 338 337 340 341 340 340 341 341 341 341 340 342 340 340 343
314 318 316 318 320 328 337 339 341 342 347 346 347 345 347 342 343 343 345 343 342 341 342 342 342 341 340 340 341 339 337 339 338 337 341 341 344 342 342 341 341 343 340 344
315 315 317 316 317 326 325 332 340 348 345 343 344 344 341 343 344 342 342 345 342 342 342 342 343 343 342 342 341 341 340 340 341 341 341 342 342 342 342 342 342 342 342 343
321 322 319 317 317 321 319 336 340 347 342 344 346 344 341 342 344 342 342 343 345 343 342 342 343 343 343 342 342 342 343 343 343 343 340 340 341 341 343 343 344 340 341 341
319 322 320 320 321 325 332 333 334 332 338 342 339 343 339 342 342 341 341 343 342 345 343 341 341 343 344 343 344 342 342 343 344 344 343 341 343 343 343 343 343 342 343 339
319 321 320 321 320 325 321 322 335 340 342 342 334 345 339 339 341 343 342 342 342 342 345 342 341 343 344 344 343 343 342 342 343 345 345 343 341 343 343 343 344 344 344 343
319 321 321 320 320 322 327 321 327 334 334 332 336 346 338 340 339 343 346 345 344 341 342 345 342 341 341 341 342 343 341 341 342 345 344 344 343 341 343 343 342 344 344 343
319 321 318 320 319 319 318 318 315 316 322 322 328 337 337 340 338 341 341 343 342 342 341 342 345 342 342 341 340 341 340 340 341 343 342 342 342 343 344 343 341 344 345 344
319 321 318 320 319 320 317 315 317 316 329 331 331 341 339 336 338 336 336 338 344 341 341 342 343 343 342 342 341 341 340 340 342 344 342 341 342 341 343 342 342 344 343 345
315 316 322 327 328 328 325 328 319 321 323 326 331 333 332 335 332 333 334 335 337 343 342 342 342 343 342 341 341 341 340 340 341 343 345 343 344 342 344 345 343 342 343 344
319 317 325 329 327 325 327 328 323 326 332 326 327 333 332 334 334 334 334 337 344 345 346 343 342 342 343 343 341 342 342 343 343 343 344 345 345 344 343 344 344 343 344 345
318 316 326 329 325 325 328 327 323 322 324 330 333 330 328 336 336 339 343 343 344 343 344 343 342 343 343 344 343 342 344 345 346 345 344 346 347 346 344 344 343 344 344 344
323 316 320 326 322 324 329 329 325 324 330 328 329 329 333 337 341 340 342 342 343 344 341 342 342 342 343 343 343 344 345 343 343 347 346 346 345 345 344 342 343 344 344 343
320 324 325 322 325 327 328 329 328 327 325 329 327 329 330 333 338 339 341 341 343 344 344 344 344 343 343 344 344 342 342 344 344 344 345 344 344 345 344 343 341 346 345 344
318 325 327 331 330 329 330 328 328 327 328 327 327 328 327 334 339 339 342 339 342 344 344 344 344 344 343 343 343 343 344 344 344 344 345 344 341 342 345 343 343 344 345 344
322 322 324 327 329 328 327 325 326 329 329 328 330 327 330 332 337 338 339 339 340 342 343 343 343 343 343 343 341 342 343 342 340 340 343 341 341 343 342 342 342 342 343 343
321 319 319 324 326 330 323 324 328 329 329 329 330 331 332 331 334 338 338 340 338 341 341 342 340 341 341 340 342 342 342 342 342 342 341 338 338 340 343 342 342 343 343 343
315 320 323 325 325 323 328 330 330 331 329 329 330 332 335 336 337 338 340 341 341 340 339 338 338 338 339 340 343 342 342 342 342 342 340 338 339 340 341 342 341 340 340 340
315 316 320 322 328 329 325 327 329 327 331 327 330 333 337 337 339 334 339 343 341 338 338 337 337 336 337 335 338 341 339 337 340 339 340 339 340 340 338 339 340 340 340 341
320 320 322 323 324 323 323 329 330 333 329 329 331 334 338 336 334 335 340 340 336 337 336 330 330 333 335 336 335 330 334 335 334 334 335 338 341 341 341 340 340 341 340 340
320 321 322 321 324 324 326 330 331 327 329 330 332 335 338 336 335 338 339 338 337 337 337 335 334 336 336 335 336 329 332 334 333 338 338 340 340 339 341 341 341 341 340 339
321 317 320 321 322 321 329 328 329 329 329 331 332 334 334 335 338 336 335 335 337 336 335 335 336 337 339 339 338 338 338 339 340 339 340 341 341 341 341 340 339 338 337 336
320 318 318 320 320 320 324 326 325 329 330 330 331 330 331 335 336 334 332 330 335 334 335 337 338 336 336 338 340 339 337 339 338 336 336 336 336 337 337 336 336 336 334 333
320 319 319 319 322 325 325 326 329 330 329 329 330 330 333 333 334 332 333 333 334 334 335 334 334 334 334 335 334 335 335 335 336 337 336 334 333 334 334 334 333 332 331 329
320 317 321 322 325 326 326 328 330 331 327 330 329 331 329 334 335 334 332 333 331 332 332 332 332 333 333 333 332 332 331 332 335 334 333 332 332 332 331 331 329 326 324 323
Wind_Speed
3 5 6 10 7 4 5 4 3 3 5 5 8 5 7 10 10 19 21 21 27 31 27 21 22 21 22 22 21 21 20 15 17 15 13 9 9 8 7 4 2 1 2 2
6 2 9 4 5 2 2 1 4 2 6 6 4 11 6 12 14 22 25 27 27 29 28 26 25 24 24 24 22 22 21 19 15 17 12 8 10 9 7 5 3 1 2 2
6 4 4 5 4 4 3 5 4 3 4 2 3 5 5 6 11 22 21 26 33 30 32 30 29 28 25 25 24 22 20 19 14 15 13 11 10 7 7 6 6 1 2 1
3 4 5 4 5 7 5 9 6 9 4 2 2 4 4 4 5 8 22 21 31 37 33 32 32 30 28 27 26 24 22 20 17 15 12 11 11 10 7 6 4 4 5 5
6 3 3 3 8 7 8 5 7 4 4 3 1 2 6 1 4 9 15 27 27 30 30 31 34 34 31 27 28 25 24 21 20 19 15 14 13 13 10 9 7 6 6 7
7 2 4 7 1 5 6 7 8 5 3 2 3 5 6 3 5 3 12 25 31 26 28 30 29 36 35 32 31 27 25 22 22 19 18 16 14 11 11 9 9 7 5 8
5 3 3 4 5 3 6 6 4 3 3 5 2 3 8 5 3 4 6 11 24 32 30 31 32 35 37 36 33 30 28 26 24 24 22 17 17 15 14 13 11 10 8 7
2 4 2 3 4 8 4 7 6 6 4 4 1 4 5 2 4 5 6 10 14 26 38 34 35 35 32 37 36 33 29 27 24 27 24 20 18 17 20 15 11 12 11 8
4 3 5 3 1 5 4 2 3 7 3 2 3 6 7 2 2 3 6 7 7 20 33 39 36 35 39 39 36 34 31 27 23 22 20 21 19 21 16 18 15 11 12 11
3 1 3 4 2 7 3 5 3 3 4 4 3 4 5 4 6 6 5 6 5 11 23 35 38 37 35 33 38 34 31 27 25 20 20 19 19 21 20 19 19 14 15 14
4 3 5 4 6 2 3 3 6 5 3 5 2 6 6 6 5 5 8 10 9 8 17 28 36 36 35 30 34 33 33 32 32 25 21 21 20 21 23 21 19 18 18 18
2 5 2 2 4 1 1 4 4 4 3 1 3 6 2 4 5 7 11 13 14 13 12 21 30 35 39 35 40 31 31 33 34 32 26 22 20 18 22 23 21 19 18 17
7 3 3 7 6 3 3 2 4 4 3 5 5 6 1 5 3 4 8 12 12 8 7 12 22 27 38 43 38 31 29 28 26 31 31 27 22 19 20 21 21 21 19 18
7 4 6 6 6 3 2 1 4 4 2 3 6 6 0 2 3 5 8 10 9 6 5 10 16 24 25 35 35 29 29 26 28 28 29 27 25 22 19 18 19 21 21 21
4 4 4 3 2 2 1 3 4 5 4 4 3 5 4 3 3 5 7 8 7 5 4 9 15 23 25 33 33 28 27 26 23 25 27 24 22 23 21 20 20 21 21 21
4 3 2 2 1 5 3 4 5 5 3 7 7 8 7 4 4 2 2 3 5 2 7 7 10 19 22 22 22 19 14 17 21 25 25 24 18 20 23 20 22 22 21 20
3 6 4 5 2 1 5 6 6 5 5 6 6 6 4 4 5 4 4 3 2 1 5 10 7 13 21 17 20 22 21 21 22 19 16 21 19 19 20 20 22 22 21 21
6 5 2 3 2 2 7 2 4 7 7 7 3 4 7 5 4 3 4 5 6 3 2 10 7 7 7 9 15 18 18 20 22 21 19 16 18 18 17 18 15 14 11 17
3 5 3 4 4 5 3 4 5 6 7 7 8 6 7 8 4 4 2 3 8 9 8 9 10 7 5 3 11 17 18 19 19 19 22 16 14 16 20 15 14 10 6 6
6 6 4 3 4 7 7 2 6 4 5 5 12 10 14 15 4 4 8 10 12 15 12 11 11 8 7 8 9 9 10 9 10 20 17 19 14 15 13 13 13 14 13 10
3 3 4 2 3 7 5 2 9 4 6 5 10 15 19 6 4 7 13 13 13 14 15 10 9 5 7 8 13 15 14 12 19 15 11 8 8 8 11 9 10 11 15 14
7 6 3 2 1 6 6 5 6 4 6 6 9 12 17 10 5 11 17 14 12 12 13 13 9 6 6 10 12 18 13 8 5 4 3 6 9 8 7 7 6 10 8 7
2 6 5 8 6 5 9 3 1 5 5 3 8 10 11 11 15 18 17 11 9 11 14 8 7 7 7 6 11 16 11 7 10 12 13 13 12 10 11 12 12 12 11 10
2 4 3 2 2 6 10 8 4 1 3 3 8 9 11 14 15 16 15 12 7 11 14 12 12 12 11 12 11 9 11 9 7 9 11 11 9 11 11 11 11 10 11 10
4 8 5 3 5 3 8 7 5 3 6 10 9 11 15 16 17 14 12 14 13 12 13 11 10 12 13 12 11 10 9 7 7 9 10 12 12 12 12 13 14 12 12 11
8 7 5 5 11 6 4 9 8 7 8 10 13 19 15 14 13 13 14 15 14 15 13 12 12 12 12 10 9 10 8 6 6 9 12 13 13 14 13 11 14 14 11 9
Wind_Direction
27 85 191 209 190 100 128 142 186 217 177 150 205 246 205 210 199 200 198 200 216 226 219 211 209 205 207 211 205 202 194 189 196 188 188 195 197 202 210 210 270 184 205 247
32 203 230 217 265 275 273 243 224 142 157 169 198 241 226 181 212 200 204 200 216 230 227 219 207 206 203 212 212 207 205 205 208 208 204 207 195 205 223 241 224 138 172 5
159 225 136 163 235 223 224 196 200 132 157 217 119 276 203 217 203 213 210 209 207 223 226 216 210 204 203 203 205 204 200 200 202 202 210 204 199 214 228 228 198 251 195 180
233 255 181 184 221 164 284 193 148 129 114 188 144 281 260 241 232 209 209 202 207 218 223 217 213 209 207 207 203 207 207 200 199 205 210 203 223 228 223 222 225 238 199 202
255 223 181 162 224 151 229 94 126 125 105 100 41 71 266 107 244 239 219 212 205 209 208 211 215 213 212 213 211 209 212 209 208 207 211 223 228 225 219 233 240 226 219 207
236 257 198 213 115 141 133 70 53 54 78 6 236 152 282 211 206 255 228 219 217 206 209 214 220 216 215 219 218 214 216 215 217 217 220 227 224 228 221 227 227 219 218 213
331 241 272 173 83 56 73 65 20 20 19 223 297 122 241 246 242 224 240 235 229 219 210 206 214 213 217 220 222 218 219 218 219 221 223 229 224 231 232 225 228 238 237 242
155 349 257 142 194 175 179 145 153 189 191 242 37 234 255 209 312 289 256 260 258 229 216 206 205 209 218 223 224 221 220 221 223 223 226 230 234 236 227 229 241 242 236 240
142 299 316 31 141 113 180 168 163 103 10 78 239 288 309 231 224 253 262 311 273 219 217 212 208 213 221 223 222 222 222 220 222 222 232 234 238 229 232 224 234 241 233 238
166 52 347 304 54 46 133 150 73 6 140 215 282 276 238 246 229 257 272 308 325 231 215 218 214 214 219 223 221 217 224 228 224 225 229 238 241 232 234 236 236 242 240 247
124 96 301 31 18 303 348 60 55 112 112 158 185 261 215 213 225 255 268 301 298 283 231 221 220 217 216 214 215 217 225 230 232 229 229 238 241 238 236 240 245 244 242 243
131 119 77 219 237 177 252 134 128 119 224 94 142 271 237 240 259 258 283 310 310 293 244 221 223 221 211 210 208 225 227 229 233 231 230 232 242 241 238 242 247 242 242 241
181 46 63 347 346 7 40 49 94 101 88 195 143 258 324 360 292 318 316 319 319 314 220 210 219 223 217 211 217 218 222 224 225 227 232 228 233 242 244 242 242 238 240 244
106 119 152 182 206 166 253 192 109 101 117 181 229 277 289 335 3 336 326 324 321 318 230 209 217 222 216 216 209 210 210 228 229 233 230 232 229 235 241 242 243 244 243 246
109 144 154 222 255 170 242 235 190 196 192 187 271 231 264 223 252 299 304 319 316 268 246 224 220 217 205 199 202 216 226 224 227 237 236 227 233 234 237 240 238 241 244 248
6 160 108 173 111 51 302 279 234 223 225 252 248 272 214 212 206 252 235 311 308 236 231 215 213 218 198 196 199 202 205 214 225 231 232 239 237 243 237 241 238 241 245 243
109 135 120 237 99 124 300 230 194 208 208 188 211 237 180 214 219 214 223 215 251 245 214 192 179 198 198 211 220 226 227 237 238 240 233 233 244 236 241 247 250 242 240 243
128 102 84 166 46 217 239 221 223 223 247 217 209 192 202 203 241 253 252 220 199 180 97 151 166 170 199 223 220 225 224 224 224 221 222 222 230 237 238 240 233 228 241 246
92 123 105 146 191 276 268 223 194 180 276 207 201 172 199 178 152 281 226 171 178 166 143 130 134 133 117 110 206 199 203 209 218 221 222 216 207 216 225 225 226 218 247 251
80 81 112 142 174 218 235 230 174 122 297 288 183 173 161 157 178 240 192 143 154 153 144 147 133 110 87 75 107 159 145 168 205 211 200 203 211 214 219 219 226 232 241 226
62 30 142 149 227 287 245 158 137 104 243 285 205 180 168 187 197 207 169 153 153 149 133 129 106 120 106 117 119 116 112 116 114 111 113 149 169 194 210 200 199 218 223 226
170 143 175 107 116 295 172 118 161 222 300 269 203 182 182 206 175 150 142 131 133 144 158 179 199 216 196 168 168 158 148 152 158 168 149 146 151 160 167 180 196 198 177 192
219 176 177 172 211 223 206 190 199 314 284 241 188 163 161 148 136 138 116 104 109 121 130 147 151 135 134 168 198 191 147 139 137 127 122 124 132 131 139 149 150 150 147 142
207 181 118 95 251 229 220 218 258 8 17 114 169 164 174 159 153 139 133 124 140 128 117 123 129 127 113 124 142 149 121 127 134 130 123 124 125 122 126 127 127 125 124 124
192 142 154 273 276 274 245 208 167 129 94 122 138 157 145 155 148 129 145 141 146 131 119 118 132 127 125 131 140 134 127 127 143 135 129 123 118 118 121 126 122 125 127 122
188 166 156 216 207 171 227 187 181 177 140 155 137 147 154 154 156 148 142 145 146 139 135 133 137 138 135 130 130 128 126 130 155 138 129 125 128 128 128 130 125 124 121 116